Date String (YYYY-MM-DD hh:mm:ss) UTC,Instrument flags,absolute air pressure of the measurement (hPa),sample flow rate (lpm),inlet stack bypass flow (lpm),air temperature of the measurement (°C),ambient temperature measured by the external sensor (°C),aerosol sample conditioner tube jacket temperature (°C),OPC LED temperature (°C),internal box temperature (°C),relative humidity of the measurement (%),span deviation,mass concentration of particles derived from Lorenz-Mie calculation of OPC scattering (μg/m³),mass concentration of particles derived from Lorenz-Mie calculation of OPC scattering (μg/m³),mass concentration of particles derived from Lorenz-Mie calculation of OPC scattering (μg/m³)
DateTimeUTC,F1_M11,P_M11,Q1_M11,Q2_M11,T1_M11,T2_M11,T3_M11,T4_M11,T5_M11,U1_M11,ZSPAN_M11,X0_M11,X2_M11,X1_M11
2023-10-21 13:00:00,SystemResetWarning,0829.6,5.01,000.00,028.8,027.2,000.0,037.3,030.4,9.8,0000.0,0003.39,0001.70,0001.01
2023-10-21 13:01:00,SystemResetWarning,0829.6,5.01,000.00,028.8,027.2,000.0,037.3,030.4,9.8,0000.0,0003.98,0001.75,0001.02
2023-10-21 13:02:00,SystemResetWarning,0829.6,5.00,000.00,028.8,027.2,000.0,037.3,030.4,9.7,0000.0,0003.96,0001.77,0001.02
2023-10-21 13:03:00,SystemResetWarning,0829.6,5.01,000.00,028.8,027.2,000.0,037.3,030.4,9.6,0000.0,0004.02,0001.71,0001.01
2023-10-21 13:04:00,SystemResetWarning,0829.6,5.00,000.00,028.8,027.2,000.0,037.3,030.4,9.8,0000.0,0003.90,0001.66,0001.01
2023-10-21 13:05:00,SystemResetWarning,0829.6,4.99,000.00,028.8,027.2,000.0,037.2,030.4,9.8,0000.0,0004.30,0001.66,0001.01
2023-10-21 13:06:00,SystemResetWarning,0829.6,4.99,000.00,028.7,027.2,000.0,037.2,030.4,9.7,0000.0,0004.06,0001.57,0000.99
2023-10-21 13:07:00,SystemResetWarning,0829.6,5.01,000.00,028.7,027.2,000.0,037.2,030.3,9.7,0000.0,0003.85,0001.52,0000.99
2023-10-21 13:08:00,SystemResetWarning,0829.6,5.01,000.00,028.7,027.2,000.0,037.2,030.3,9.7,0000.0,0003.82,0001.49,0000.98
2023-10-21 13:09:00,SystemResetWarning,0829.6,5.00,000.00,028.7,027.2,000.0,037.2,030.3,9.6,0000.0,0003.78,0001.44,0000.95
2023-10-21 13:10:00,SystemResetWarning,0829.6,5.00,000.00,028.7,027.2,000.0,037.2,030.3,9.6,0000.0,0003.64,0001.39,0000.94
2023-10-21 13:11:00,SystemResetWarning,0829.6,5.00,000.00,028.7,027.2,000.0,037.2,030.3,9.7,0000.0,0003.75,0001.40,0000.93
2023-10-21 13:12:00,SystemResetWarning,0829.6,5.00,000.00,028.7,027.2,000.0,037.2,030.3,9.7,0000.0,0003.95,0001.40,0000.91
2023-10-21 13:13:00,SystemResetWarning,0829.6,5.00,000.00,028.7,027.1,000.0,037.2,030.3,9.8,0000.0,0004.30,0001.38,0000.91
2023-10-21 13:14:00,SystemResetWarning,0829.7,5.00,000.00,028.7,027.1,000.0,037.2,030.3,9.7,0000.0,0004.26,0001.44,0000.91
2023-10-21 13:15:00,SystemResetWarning,0829.6,5.00,000.00,028.7,027.1,000.0,037.2,030.3,9.6,0000.0,0004.43,0001.49,0000.92
2023-10-21 13:16:00,SystemResetWarning,0829.7,5.00,000.00,028.7,027.1,000.0,037.2,030.3,9.6,0000.0,0005.03,0001.52,0000.92
2023-10-21 13:17:00,SystemResetWarning,0829.7,5.00,000.00,028.7,027.1,000.0,037.2,030.3,9.8,0000.0,0004.88,0001.52,0000.93
2023-10-21 13:18:00,SystemResetWarning,0829.6,5.00,000.00,028.7,027.1,000.0,037.2,030.3,10.0,0000.0,0005.98,0001.54,0000.92
2023-10-21 13:19:00,SystemResetWarning,0829.6,5.00,000.00,028.7,027.1,000.0,037.2,030.3,10.1,0000.0,0006.95,0001.60,0000.94
2023-10-21 13:20:00,SystemResetWarning,0829.6,5.01,000.00,028.7,027.1,000.0,037.2,030.3,10.2,0000.0,0007.18,0001.59,0000.94
2023-10-21 13:21:00,SystemResetWarning,0829.6,5.00,000.00,028.7,027.1,000.0,037.2,030.3,10.3,0000.0,0007.18,0001.59,0000.94
2023-10-21 13:22:00,SystemResetWarning,0829.6,5.01,000.00,028.7,027.1,000.0,037.2,030.3,10.4,0000.0,0007.00,0001.54,0000.94
2023-10-21 13:23:00,SystemResetWarning,0829.6,5.00,000.00,028.7,027.1,000.0,037.2,030.3,10.4,0000.0,0006.49,0001.54,0000.96
2023-10-21 13:24:00,SystemResetWarning,0829.6,5.00,000.00,028.7,027.1,000.0,037.2,030.3,10.4,0000.0,0006.10,0001.57,0000.95
2023-10-21 13:25:00,SystemResetWarning,0829.7,5.00,000.00,028.7,027.1,000.0,037.1,030.3,10.4,0000.0,0005.92,0001.55,0000.94
2023-10-21 13:26:00,SystemResetWarning,0829.7,4.99,000.00,028.7,027.1,000.0,037.1,030.3,10.5,0000.0,0005.92,0001.51,0000.92
2023-10-21 13:27:00,SystemResetWarning,0829.6,5.00,000.00,028.7,027.1,000.0,037.2,030.3,10.5,0000.0,0005.41,0001.50,0000.92
2023-10-21 13:28:00,SystemResetWarning,0829.7,5.00,000.00,028.7,027.1,000.0,037.1,030.3,10.5,0000.0,0005.41,0001.49,0000.90
2023-10-21 13:29:00,SystemResetWarning,0829.7,5.01,000.00,028.7,027.1,000.0,037.1,030.2,10.5,0000.0,0004.44,0001.49,0000.91
2023-10-21 13:30:00,SystemResetWarning,0829.7,5.00,000.00,028.7,027.1,000.0,037.1,030.2,10.5,0000.0,0003.77,0001.50,0000.90
2023-10-21 13:31:00,SystemResetWarning,0829.7,5.00,000.00,028.7,027.1,000.0,037.1,030.2,10.5,0000.0,0003.27,0001.50,0000.89
2023-10-21 13:32:00,SystemResetWarning,0829.7,5.00,000.00,028.6,027.1,000.0,037.1,030.2,10.5,0000.0,0004.10,0001.54,0000.89
2023-10-21 13:33:00,SystemResetWarning,0829.7,5.00,000.00,028.6,027.1,000.0,037.1,030.2,10.6,0000.0,0004.53,0001.58,0000.90
2023-10-21 13:34:00,SystemResetWarning,0829.7,5.01,000.00,028.6,027.1,000.0,037.1,030.3,10.7,0000.0,0004.44,0001.55,0000.90
2023-10-21 13:35:00,SystemResetWarning,0829.7,5.01,000.00,028.6,027.1,000.0,037.1,030.2,10.7,0000.0,0004.31,0001.52,0000.91
2023-10-21 13:36:00,SystemResetWarning,0829.7,5.00,000.00,028.6,027.1,000.0,037.1,030.2,10.8,0000.0,0004.30,0001.51,0000.92
2023-10-21 13:37:00,SystemResetWarning,0829.7,5.00,000.00,028.6,027.1,000.0,037.1,030.2,10.8,0000.0,0004.49,0001.58,0000.93
2023-10-21 13:38:00,SystemResetWarning,0829.7,5.00,000.00,028.6,027.1,000.0,037.1,030.2,10.8,0000.0,0004.04,0001.58,0000.94
2023-10-21 13:39:00,SystemResetWarning,0829.7,5.00,000.00,028.6,027.1,000.0,037.1,030.2,10.9,0000.0,0004.05,0001.61,0000.95
2023-10-21 13:40:00,SystemResetWarning,0829.7,5.00,000.00,028.6,027.1,000.0,037.1,030.2,10.9,0000.0,0004.02,0001.62,0000.95
2023-10-21 13:41:00,SystemResetWarning,0829.6,5.00,000.00,028.6,027.1,000.0,037.1,030.2,10.9,0000.0,0003.79,0001.55,0000.94
2023-10-21 13:42:00,SystemResetWarning,0829.7,5.00,000.00,028.6,027.1,000.0,037.1,030.2,10.9,0000.0,0003.82,0001.55,0000.95
2023-10-21 13:43:00,SystemResetWarning,0829.7,5.00,000.00,028.6,027.1,000.0,037.1,030.2,10.9,0000.0,0004.13,0001.54,0000.94
2023-10-21 13:44:00,SystemResetWarning,0829.7,5.00,000.00,028.6,027.1,000.0,037.1,030.2,10.9,0000.0,0004.22,0001.53,0000.94
2023-10-21 13:45:00,SystemResetWarning,0829.7,4.99,000.00,028.6,027.1,000.0,037.1,030.2,10.9,0000.0,0006.14,0001.54,0000.95
2023-10-21 13:46:00,SystemResetWarning,0829.7,5.00,000.00,028.6,027.1,000.0,037.1,030.2,10.9,0000.0,0006.37,0001.52,0000.94
2023-10-21 13:47:00,SystemResetWarning,0829.7,5.00,000.00,028.6,027.1,000.0,037.1,030.2,10.9,0000.0,0006.47,0001.53,0000.94
2023-10-21 13:48:00,SystemResetWarning,0829.7,5.00,000.00,028.6,027.1,000.0,037.1,030.2,10.9,0000.0,0006.40,0001.50,0000.93
2023-10-21 13:49:00,SystemResetWarning,0829.7,5.00,000.00,028.6,027.1,000.0,037.1,030.2,10.9,0000.0,0007.44,0001.59,0000.92
2023-10-21 13:50:00,SystemResetWarning,0829.6,5.00,000.00,028.6,027.1,000.0,037.1,030.2,10.8,0000.0,0007.70,0001.59,0000.91
2023-10-21 13:51:00,SystemResetWarning,0829.7,4.99,000.00,028.6,027.1,000.0,037.1,030.2,10.8,0000.0,0007.72,0001.61,0000.91
2023-10-21 13:52:00,SystemResetWarning,0829.6,5.00,000.00,028.6,027.1,000.0,037.1,030.3,10.8,0000.0,0007.85,0001.67,0000.91
2023-10-21 13:53:00,SystemResetWarning,0829.6,5.00,000.00,028.6,027.1,000.0,037.1,030.3,10.8,0000.0,0007.94,0001.69,0000.91
2023-10-21 13:54:00,SystemResetWarning,0829.7,5.00,000.00,028.6,027.1,000.0,037.1,030.2,10.7,0000.0,0007.60,0001.68,0000.93
2023-10-21 13:55:00,SystemResetWarning,0829.7,5.01,000.00,028.6,027.1,000.0,037.1,030.3,10.7,0000.0,0007.06,0001.69,0000.94
2023-10-21 13:56:00,SystemResetWarning,0829.7,5.01,000.00,028.6,027.1,000.0,037.1,030.2,10.8,0000.0,0006.00,0001.70,0000.92
2023-10-21 13:57:00,SystemResetWarning,0829.7,5.00,000.00,028.7,027.2,000.0,037.1,030.2,10.7,0000.0,0005.22,0001.71,0000.92
2023-10-21 13:58:00,SystemResetWarning,0829.7,4.99,000.00,028.7,027.2,000.0,037.1,030.2,10.7,0000.0,0005.32,0001.72,0000.93
2023-10-21 13:59:00,SystemResetWarning,0829.7,5.00,000.00,028.7,027.2,000.0,037.1,030.3,10.7,0000.0,0005.92,0001.72,0000.94
